Presure
150 141 145 144 172 90 147 84 89 163 116 91 171 175 167 163 155 175 147 167 161 124 137 114 124 156 137 147 149 130 135 154 148
147 164 114 136 139 89 92 161 129 148 161 170 136 172 160 128 130 120 159 124 129 140 140 128 126 134 122 128 133 141 139 140 154
108 109 129 95 89 132 143 106 161 157 142 137 154 150 127 119 119 123 110 116 119 133 124 163 126 137 127 135 175 138 133 136 165
146 112 114 99 84 84 133 123 127 129 125 130 127 117 117 117 127 117 117 150 119 118 118 115 120 115 128 118 116 127 124 120 135
152 124 130 119 112 125 118 125 126 116 121 125 121 125 113 114 124 126 117 132 125 115 119 127 115 121 126 126 124 132 119 116 134
126 131 126 138 131 168 126 118 145 117 109 111 123 135 123 119 125 124 129 125 127 134 114 130 126 124 118 121 118 121 118 129 111
117 163 146 112 154 118 124 131 121 95 104 99 141 104 133 97 133 146 140 143 137 141 142 138 117 124 127 113 126 148 128 118 150
122 141 136 134 109 186 137 105 154 140 98 114 169 144 160 165 124 153 146 135 152 116 130 109 148 147 153 128 120 109 146 134 135
133 130 166 137 113 157 96 116 136 150 136 90 123 143 164 148 144 153 157 134 152 152 158 134 121 149 124 113 158 125 138 154 119
121 140 133 122 141 96 154 119 98 82 120 110 144 141 156 137 139 160 144 135 127 152 149 157 125 123 157 153 128 126 108 133 128
146 146 129 91 109 111 126 87 149 96 106 134 119 171 169 181 104 145 165 139 149 124 149 141 116 132 123 149 125 143 123 108 154
136 105 136 146 90 101 96 98 102 180 105 138 151 119 150 148 158 137 151 137 143 171 119 144 153 105 111 112 176 124 129 162 135
144 134 114 170 137 98 178 150 101 139 197 148 126 139 142 151 156 133 179 133 141 146 122 143 142 113 106 111 130 123 118 110 153
133 135 127 125 123 134 156 99 125 144 192 157 102 129 184 145 139 133 137 131 138 150 143 173 145 140 159 155 144 134 156 122 115
142 136 144 106 131 102 139 143 130 96 124 132 142 137 136 113 123 156 134 138 136 156 142 147 152 207 151 176 164 108 134 121 141
91 125 116 106 117 110 144 107 151 127 137 215 214 154 124 136 130 124 174 141 126 182 168 163 128 154 117 131 160 109 119 171 189
152 134 128 142 133 133 134 164 154 125 113 122 199 172 182 137 128 130 153 122 153 117 146 139 154 127 102 117 127 128 166 117 116
124 153 140 135 144 151 126 144 147 135 135 170 162 153 183 201 119 149 122 131 170 152 129 131 137 139 124 127 133 129 124 120 120
134 139 113 128 119 124 136 135 142 129 123 174 136 121 113 164 156 157 126 174 123 122 128 154 112 136 133 136 157 128 122 138 169
125 126 110 114 119 129 138 129 154 149 149 130 130 138 210 148 144 142 101 203 133 133 153 188 139 155 132 163 144 171 132 178 203
Wind_Speed
13 11 12 11 25 16 25 15 23 26 26 30 30 31 28 26 21 32 23 33 33 37 35 43 42 37 40 40 41 43 47 43 43
23 23 17 14 12 18 22 21 17 25 25 28 20 29 25 22 26 33 27 32 30 31 30 41 41 38 45 46 48 47 49 50 48
21 19 18 23 21 14 14 16 23 23 20 20 24 22 21 33 34 31 45 44 41 32 39 34 46 43 47 40 45 48 50 53 42
21 18 18 23 23 24 16 24 21 20 22 31 21 32 34 36 28 40 42 33 43 45 46 50 44 53 51 52 49 49 51 46 55
24 22 19 24 27 23 28 27 26 29 29 28 33 29 37 39 33 32 42 29 37 49 49 41 54 53 49 52 55 49 50 42 54
26 25 26 26 31 37 28 29 26 28 27 30 29 30 33 37 35 37 34 37 36 37 50 39 44 51 58 58 60 63 52 56 34
31 38 31 26 37 29 30 29 27 26 28 30 32 34 33 35 34 32 32 33 33 32 34 35 54 50 49 54 56 48 63 51 51
35 28 30 31 27 43 28 25 35 35 32 34 37 33 36 38 40 38 34 33 37 47 39 52 37 38 42 50 59 47 46 60 57
37 34 43 31 30 32 28 34 30 38 38 33 36 35 37 35 34 39 41 34 38 39 43 39 52 42 56 61 46 59 53 47 46
31 35 36 37 32 27 36 30 33 25 42 38 38 36 43 40 42 44 38 34 37 40 41 43 50 51 46 45 51 57 39 62 63
37 41 42 32 31 33 34 33 38 34 35 44 44 48 49 47 42 41 46 44 39 46 48 42 52 45 55 47 54 58 63 45 52
41 35 41 44 35 35 37 38 39 46 42 45 41 45 42 43 45 43 43 38 40 48 52 43 46 54 63 66 56 63 58 49 60
47 44 38 49 45 42 46 46 39 42 48 47 46 46 46 46 46 42 54 43 42 43 51 47 48 58 60 67 52 57 64 61 51
39 45 42 44 35 46 46 42 46 47 51 45 42 50 48 45 45 47 48 49 45 47 47 51 49 57 57 57 57 53 64 65 73
50 48 41 43 47 46 45 49 50 34 51 46 46 49 48 54 55 52 45 49 47 44 44 47 53 56 53 55 58 48 68 70 72
45 46 48 39 53 51 44 50 49 55 49 56 53 58 51 49 51 56 58 45 54 58 64 64 54 56 66 48 61 59 74 68 71
42 53 53 45 49 53 50 56 51 58 53 61 57 53 60 55 56 53 58 61 54 66 51 51 55 57 46 75 68 66 69 75 72
50 56 49 52 48 60 59 46 48 54 54 63 56 58 63 61 53 56 62 62 66 61 58 57 61 53 71 72 67 70 76 73 62
52 52 58 58 65 64 55 50 47 56 59 69 60 48 59 68 62 65 64 78 52 59 60 55 65 68 66 75 59 76 81 80 72
59 57 59 66 66 66 59 61 59 56 57 62 62 61 69 62 69 63 46 75 59 63 64 74 63 74 71 69 65 73 76 71 72
Wind_Direction
287 274 284 290 285 307 283 311 318 295 315 323 297 295 306 315 323 304 322 313 314 323 324 330 327 326 330 332 331 335 339 333 339
289 286 289 279 287 302 307 302 309 299 293 296 303 298 310 312 316 317 316 316 320 321 320 322 324 324 327 331 331 335 335 338 331
269 273 250 285 297 278 297 301 297 298 298 301 306 307 302 313 314 315 324 322 321 316 318 324 322 325 324 327 314 331 336 338 326
274 273 277 287 307 312 278 291 286 285 292 308 295 312 310 312 308 313 313 318 312 317 319 326 326 331 320 329 335 331 334 342 336
278 267 253 277 297 276 296 286 289 310 301 291 298 291 317 316 296 295 309 294 299 318 315 312 325 319 318 321 326 325 339 346 332
266 262 264 272 287 291 297 296 289 302 314 315 294 285 294 304 294 303 292 296 301 300 318 304 309 314 322 324 328 326 338 328 342
279 270 279 286 277 280 294 281 294 303 314 317 285 318 292 315 289 298 294 296 293 297 301 304 316 309 312 331 318 312 323 336 317
271 264 280 263 283 266 278 299 287 285 309 311 285 291 291 290 295 296 296 291 301 312 292 324 305 303 305 310 319 336 310 318 321
260 271 267 261 286 283 294 296 285 284 284 313 301 292 290 290 291 293 293 290 297 297 299 293 302 305 308 326 309 312 307 306 327
271 267 274 276 269 275 276 281 290 318 298 296 294 293 286 288 288 291 294 286 290 295 295 300 307 307 302 301 304 321 337 316 323
264 270 270 279 289 288 284 296 278 302 296 283 297 276 277 272 305 288 290 289 296 300 299 293 306 297 304 301 306 303 312 340 301
275 282 277 277 285 282 275 286 289 278 293 275 287 296 288 287 287 290 291 288 290 290 300 293 297 322 315 318 290 318 302 299 307
266 276 277 273 277 283 274 284 290 274 271 274 285 281 290 286 287 286 281 289 286 293 303 297 294 309 322 314 298 307 310 326 301
269 277 277 277 285 277 274 283 286 283 269 282 292 283 278 284 286 287 289 289 288 285 290 286 291 297 285 297 294 305 293 307 320
271 274 268 272 277 284 274 275 284 298 287 288 280 278 276 301 292 283 285 292 286 284 285 291 293 275 286 282 290 311 301 302 304
273 272 287 284 289 293 266 297 269 284 288 278 271 282 293 272 281 292 274 280 293 277 291 292 286 294 308 294 299 318 311 292 289
265 260 266 265 267 269 269 274 279 283 290 288 278 278 271 274 286 291 281 294 287 302 288 286 285 299 304 303 292 293 293 309 311
266 265 260 277 265 274 276 269 272 272 274 286 277 281 273 271 289 282 287 287 282 285 282 285 295 282 289 292 290 291 299 303 298
262 264 286 266 278 275 266 266 269 270 285 282 282 277 295 282 279 277 283 278 291 285 276 288 304 288 283 289 297 289 300 299 285
269 270 287 286 284 276 275 274 283 280 279 282 280 277 270 281 276 269 291 270 274 277 293 281 280 291 281 297 284 298 290 297 285